Total_Precipitation_Accumulation
0.02 0.05 0.23 0.42 0.75 1.41 1.44 0.92 0.42 0.24 0.23 0.29 0.36 0.41 0.42 0.37 0.48 0.81 0.42 0.19 0.08 0.04 0.04 0.09 0.12 0.11 0.13 0.16 0.16 0.18 0.19 0.17 0.14 0.13 0.13 0.15 0.13 0.12 0.13 0.17 0.17 0.16 0.18 0.17 0.19 0.20 0.19 0.21 0.20
0.02 0.09 0.27 0.43 1.04 1.61 1.22 1.06 0.36 0.20 0.19 0.30 0.36 0.39 0.40 0.40 0.25 0.27 0.29 0.23 0.13 0.08 0.04 0.04 0.09 0.12 0.11 0.14 0.17 0.18 0.17 0.16 0.15 0.17 0.17 0.17 0.12 0.12 0.13 0.15 0.16 0.16 0.16 0.16 0.15 0.15 0.14 0.15 0.16
0.04 0.14 0.28 0.43 0.84 1.02 0.67 0.54 0.23 0.17 0.21 0.28 0.35 0.36 0.38 0.46 0.29 0.26 0.27 0.20 0.15 0.08 0.05 0.06 0.09 0.10 0.11 0.14 0.16 0.18 0.17 0.16 0.16 0.21 0.22 0.21 0.15 0.16 0.16 0.17 0.15 0.15 0.15 0.13 0.12 0.12 0.12 0.13 0.16
0.05 0.13 0.23 0.37 0.43 0.49 0.41 0.28 0.17 0.15 0.20 0.27 0.31 0.32 0.42 0.38 0.25 0.32 0.35 0.34 0.18 0.11 0.07 0.10 0.11 0.11 0.11 0.13 0.15 0.20 0.23 0.20 0.20 0.21 0.22 0.23 0.20 0.23 0.22 0.16 0.15 0.16 0.16 0.14 0.12 0.12 0.13 0.14 0.17
0.07 0.15 0.23 0.27 0.25 0.34 0.35 0.25 0.19 0.13 0.14 0.23 0.35 0.49 0.53 0.39 0.27 0.41 0.42 0.43 0.26 0.15 0.09 0.11 0.14 0.13 0.12 0.12 0.14 0.17 0.21 0.22 0.24 0.24 0.20 0.20 0.18 0.19 0.21 0.16 0.14 0.14 0.14 0.12 0.13 0.14 0.19 0.20 0.22
0.08 0.14 0.16 0.16 0.17 0.26 0.25 0.18 0.17 0.16 0.20 0.24 0.37 0.59 0.66 0.52 0.37 0.39 0.48 0.40 0.35 0.26 0.17 0.17 0.20 0.18 0.16 0.15 0.16 0.17 0.17 0.18 0.18 0.19 0.18 0.16 0.16 0.20 0.24 0.22 0.16 0.14 0.12 0.14 0.16 0.17 0.21 0.24 0.25
0.05 0.06 0.07 0.09 0.12 0.18 0.20 0.15 0.15 0.13 0.16 0.24 0.32 0.64 0.83 0.87 0.63 0.50 0.59 0.61 0.61 0.43 0.27 0.25 0.24 0.21 0.23 0.27 0.23 0.22 0.21 0.21 0.21 0.22 0.21 0.21 0.20 0.21 0.23 0.27 0.24 0.20 0.20 0.21 0.20 0.19 0.21 0.24 0.26
0.02 0.02 0.02 0.05 0.06 0.10 0.13 0.14 0.12 0.14 0.15 0.20 0.30 0.50 0.83 0.79 0.54 0.59 0.88 0.92 1.02 0.82 0.56 0.41 0.32 0.31 0.27 0.25 0.28 0.28 0.28 0.27 0.24 0.25 0.24 0.26 0.26 0.26 0.28 0.28 0.31 0.31 0.35 0.36 0.30 0.28 0.28 0.29 0.30
0.01 0.02 0.02 0.02 0.02 0.05 0.07 0.09 0.10 0.10 0.14 0.25 0.37 0.53 0.69 0.60 0.54 0.64 1.15 1.19 1.16 0.99 0.78 0.63 0.49 0.40 0.35 0.29 0.31 0.38 0.39 0.38 0.35 0.39 0.36 0.38 0.44 0.48 0.53 0.49 0.57 0.57 0.57 0.58 0.54 0.53 0.55 0.52 0.43
0.01 0.00 0.01 0.00 0.01 0.02 0.04 0.08 0.10 0.11 0.22 0.56 0.77 0.81 0.80 0.70 0.76 0.94 1.25 1.11 1.14 1.16 0.98 0.84 0.67 0.52 0.45 0.44 0.55 0.67 0.59 0.59 0.59 0.71 0.73 0.80 0.96 0.93 0.66 0.71 0.96 1.08 1.15 1.11 1.06 1.05 0.89 0.77 0.71
0.00 0.00 0.00 0.00 0.01 0.01 0.02 0.06 0.10 0.13 0.42 0.85 1.05 0.96 0.92 0.99 1.05 1.27 1.56 1.58 1.46 1.54 1.32 1.10 0.93 0.76 0.67 0.79 0.73 0.79 0.90 0.98 0.96 1.00 1.04 1.13 1.12 0.95 0.81 0.92 1.18 1.43 1.50 1.39 1.60 1.63 1.25 1.31 1.52
0.00 0.00 0.00 0.00 0.00 0.01 0.02 0.03 0.09 0.21 0.42 0.56 0.73 0.94 1.07 1.21 1.46 1.66 1.69 1.85 1.79 1.75 1.64 1.58 1.34 1.16 1.20 1.15 0.90 0.84 0.88 0.97 1.08 1.29 1.29 1.35 1.48 1.40 1.34 1.37 1.42 1.58 1.76 1.95 1.98 2.11 1.96 1.90 1.82
0.00 0.00 0.00 0.00 0.01 0.02 0.02 0.05 0.15 0.30 0.39 0.48 0.78 1.13 1.39 1.42 1.71 1.96 2.01 2.26 2.07 1.94 1.88 1.86 1.80 1.63 1.68 1.45 1.26 1.11 1.19 1.21 1.26 1.37 1.48 1.47 1.67 1.80 1.78 1.72 1.68 1.64 1.76 1.91 2.05 2.12 2.43 2.55 2.22
0.00 0.00 0.00 0.01 0.01 0.03 0.06 0.10 0.21 0.35 0.51 0.65 0.86 1.17 1.47 1.71 1.91 1.99 2.31 2.53 2.51 2.34 2.34 2.16 2.09 2.08 2.04 1.92 1.86 1.76 1.56 1.55 1.53 1.50 1.50 1.54 1.73 1.92 2.01 1.91 1.86 1.75 1.73 1.89 2.06 2.23 2.67 2.67 2.49
0.00 0.01 0.03 0.03 0.04 0.06 0.09 0.24 0.36 0.48 0.59 0.71 0.90 1.07 1.39 1.88 2.11 2.13 2.36 2.51 2.48 2.77 2.77 2.75 2.69 2.81 2.72 2.52 2.38 2.18 1.97 1.83 1.79 1.83 1.84 1.75 1.78 1.90 1.90 1.74 1.68 1.72 1.85 2.00 2.03 2.22 2.50 2.22 2.20
0.01 0.08 0.10 0.11 0.09 0.09 0.14 0.41 0.47 0.52 0.60 0.79 0.98 1.13 1.40 1.73 2.04 2.16 2.43 2.61 2.70 3.01 3.12 3.25 3.29 3.24 3.07 2.99 2.90 2.65 2.41 2.19 2.03 1.96 2.01 1.86 1.79 1.79 1.92 1.74 1.61 1.92 2.03 2.10 2.26 2.37 2.37 2.28 2.24
0.04 0.06 0.08 0.11 0.09 0.08 0.13 0.35 0.44 0.57 0.79 1.00 1.17 1.26 1.36 1.64 1.93 2.20 2.55 2.90 3.19 3.46 3.66 3.79 3.81 3.65 3.38 3.34 3.26 3.06 2.85 2.49 2.19 2.03 1.97 1.83 1.79 1.88 2.11 2.02 2.07 2.25 2.30 2.28 2.19 2.42 2.40 2.28 2.24
0.03 0.05 0.07 0.10 0.09 0.09 0.19 0.40 0.46 0.60 0.86 0.97 1.24 1.36 1.45 1.56 1.98 2.39 2.61 3.02 3.48 3.92 4.27 4.09 3.99 4.11 3.95 3.74 3.52 3.18 2.73 2.35 2.22 2.14 1.96 1.89 1.91 2.01 2.29 2.11 2.06 2.21 2.32 2.29 2.25 2.21 2.23 2.04 2.02
0.03 0.06 0.09 0.12 0.10 0.12 0.23 0.49 0.68 0.79 1.01 1.05 1.10 1.25 1.36 1.48 1.79 2.17 2.46 3.02 3.60 3.91 4.30 4.46 4.43 4.27 4.00 3.56 3.19 2.90 2.66 2.50 2.26 2.11 2.01 1.92 1.86 1.94 2.20 2.06 2.11 2.12 2.09 2.10 2.15 2.15 1.98 1.67 1.86
0.04 0.07 0.09 0.14 0.13 0.17 0.32 0.54 0.79 0.80 0.89 0.94 0.87 0.95 1.13 1.47 1.71 2.19 2.43 2.64 3.12 3.61 4.04 4.31 4.45 4.28 3.88 3.41 3.09 2.89 2.82 2.49 2.19 2.14 2.10 1.96 2.00 1.99 2.01 2.05 2.00 2.01 2.04 1.96 1.92 1.98 1.81 1.51 1.64
0.06 0.07 0.09 0.10 0.12 0.23 0.34 0.72 0.97 0.86 0.82 0.87 0.87 0.94 1.10 1.56 2.01 2.22 2.34 2.47 2.72 3.14 3.43 3.52 3.65 3.59 3.37 3.30 3.17 2.99 2.92 2.57 2.39 2.38 2.33 2.18 2.17 2.12 2.09 2.02 1.89 1.74 1.66 1.61 1.65 1.72 1.71 1.52 1.47
0.08 0.06 0.05 0.06 0.14 0.33 0.37 0.82 1.24 1.07 0.91 0.95 1.02 0.99 1.28 1.61 1.62 1.70 1.95 2.24 2.46 2.70 3.01 3.23 3.25 3.17 3.02 3.03 2.92 2.72 2.47 2.34 2.43 2.62 2.53 2.27 2.06 1.90 1.70 1.56 1.56 1.51 1.47 1.41 1.31 1.37 1.42 1.34 1.26
0.06 0.05 0.06 0.09 0.14 0.30 0.38 0.60 1.08 1.11 1.15 1.03 1.01 1.12 1.35 1.37 1.32 1.35 1.55 1.87 1.99 2.25 2.51 2.79 3.02 3.08 2.95 2.89 2.75 2.67 2.49 2.39 2.37 2.30 2.19 1.98 1.76 1.53 1.27 1.19 1.22 1.21 1.18 1.15 1.10 1.09 1.07 1.06 1.07
0.05 0.06 0.12 0.18 0.30 0.63 0.49 0.51 0.93 1.07 0.97 0.86 0.92 0.97 1.12 1.11 1.14 1.26 1.40 1.65 1.74 1.84 1.94 2.07 2.32 2.55 2.62 2.58 2.49 2.40 2.26 2.15 2.01 1.79 1.62 1.48 1.36 1.15 0.93 0.84 0.90 0.95 1.01 0.98 0.96 0.97 0.94 0.98 1.09
0.06 0.09 0.39 0.74 0.97 1.02 0.55 0.59 1.03 0.85 0.65 0.66 0.82 0.85 0.81 0.81 0.86 1.06 1.17 1.25 1.35 1.43 1.48 1.59 1.82 2.10 2.17 2.09 2.06 2.04 1.92 1.83 1.70 1.57 1.41 1.27 1.12 0.93 0.82 0.76 0.79 0.84 0.90 0.85 0.84 0.84 0.91 1.03 1.12
0.08 0.09 0.34 0.61 0.74 0.81 0.66 1.00 1.43 0.92 0.68 0.72 0.74 0.73 0.70 0.68 0.64 0.75 0.95 1.10 1.12 1.14 1.22 1.34 1.58 1.75 1.78 1.67 1.71 1.76 1.68 1.64 1.52 1.48 1.26 1.08 0.97 0.91 0.92 0.83 0.78 0.75 0.75 0.72 0.78 0.77 0.82 0.94 1.04
0.09 0.08 0.14 0.28 0.36 0.58 0.80 1.09 1.14 0.68 0.60 0.70 0.71 0.68 0.70 0.69 0.59 0.59 0.67 0.82 0.88 0.91 0.97 1.05 1.31 1.50 1.57 1.50 1.54 1.57 1.57 1.48 1.32 1.22 1.10 0.94 0.92 0.91 0.99 0.92 0.85 0.80 0.79 0.81 0.88 0.91 0.99 1.14 1.20
0.10 0.11 0.16 0.22 0.34 0.55 0.75 1.03 1.17 0.79 0.63 0.47 0.43 0.46 0.41 0.40 0.38 0.36 0.40 0.46 0.56 0.69 0.83 0.92 1.01 1.17 1.26 1.25 1.26 1.28 1.37 1.31 1.19 1.13 1.01 0.86 0.78 0.80 0.93 0.97 0.91 0.85 0.81 0.84 0.92 1.07 1.24 1.36 1.38
0.13 0.11 0.13 0.17 0.20 0.37 0.72 0.92 0.69 0.55 0.49 0.45 0.40 0.44 0.37 0.30 0.28 0.30 0.34 0.42 0.50 0.57 0.69 0.81 0.87 0.97 1.05 1.06 1.10 1.10 1.10 1.14 1.10 1.00 0.88 0.82 0.79 0.77 0.78 0.83 0.86 0.83 0.79 0.81 0.87 0.97 1.16 1.28 1.29
0.14 0.11 0.13 0.17 0.16 0.22 0.37 0.54 0.38 0.37 0.40 0.38 0.38 0.42 0.42 0.41 0.37 0.34 0.35 0.45 0.50 0.57 0.62 0.66 0.71 0.80 0.94 1.07 1.23 1.28 1.20 1.15 1.06 0.92 0.83 0.79 0.77 0.76 0.76 0.77 0.75 0.70 0.70 0.76 0.81 0.92 1.02 1.10 1.12